Wind_Speed
33 33 32 30 31 36 40 42 43 44 43 42 44 45 43 42 41 40 40 40 40 40 39 38 38 37 35 33 32 31 31 30 28 26 25 23 21 23 23 20 20 19 18 18 18 18 17 15 16 17 19 19 15 12 11 10 12 13 11 13 16 13 10
33 34 34 32 32 37 41 44 44 44 45 43 44 46 45 43 43 42 41 41 41 40 40 40 39 38 36 34 33 32 31 30 29 28 26 24 24 24 22 21 21 20 19 19 20 20 19 20 22 23 23 21 15 11 11 10 10 12 12 11 13 14 13
35 36 35 35 36 39 42 42 41 42 44 43 44 47 47 46 45 44 42 42 41 40 40 40 40 38 36 35 35 34 32 30 30 30 28 27 27 26 23 22 22 23 23 22 22 23 22 23 25 24 23 20 16 15 13 12 10 11 13 12 11 11 11
39 39 35 36 37 40 42 41 42 43 44 43 42 45 47 47 45 45 43 42 41 41 41 40 39 39 38 37 36 35 34 32 31 30 29 29 29 28 26 25 24 26 27 26 25 25 25 26 25 23 21 19 18 17 15 13 12 12 13 14 12 11 10
42 40 37 38 39 40 41 40 42 43 43 42 41 43 46 46 46 45 43 42 41 41 41 40 39 39 38 38 37 36 35 34 32 31 30 31 31 31 30 28 28 29 29 28 28 28 28 27 25 22 22 21 21 19 16 15 14 13 13 15 15 13 11
46 44 39 41 40 40 41 39 39 40 40 40 41 41 43 43 44 43 42 42 41 40 40 40 39 39 39 38 37 36 35 35 34 33 32 33 33 34 34 32 31 32 31 30 31 31 30 28 25 25 24 23 22 20 18 17 16 15 14 14 14 13 12
42 46 41 40 36 35 36 36 36 36 36 36 36 37 39 40 41 42 41 41 40 39 40 40 39 39 40 38 37 36 35 35 35 34 34 34 35 36 36 35 35 34 32 33 33 33 31 28 27 28 26 24 22 21 19 19 18 18 16 15 14 12 12
35 43 43 40 34 31 31 32 32 31 33 35 35 36 38 39 40 41 41 40 39 39 40 40 39 40 40 39 37 36 36 36 36 36 36 36 37 38 38 38 38 36 34 34 36 34 31 30 30 30 28 26 23 22 20 20 20 19 18 17 15 14 12
30 41 42 37 32 30 31 33 32 31 32 35 37 38 39 40 40 41 41 40 40 40 40 40 40 39 40 40 38 37 37 37 37 38 37 38 39 40 40 40 40 38 36 37 37 35 31 31 32 31 30 28 25 23 22 21 21 21 19 17 17 16 14
26 40 41 35 33 31 32 34 34 34 35 38 41 42 41 42 42 41 42 41 40 41 40 40 39 39 40 40 39 39 39 39 39 39 39 40 41 41 42 42 41 40 40 40 39 36 33 33 34 33 32 30 28 25 24 23 23 23 21 19 18 17 15
26 35 34 33 33 30 31 34 36 38 40 41 43 44 44 43 42 41 42 42 41 40 40 40 40 39 40 41 40 40 42 42 41 41 41 41 41 42 44 44 44 43 42 41 40 38 36 36 36 36 36 34 30 27 26 25 24 24 23 21 19 18 15
32 34 32 32 31 28 29 33 35 37 39 41 42 43 45 45 43 41 42 42 41 41 41 41 40 40 40 41 41 42 43 44 44 43 43 42 41 43 44 45 45 45 44 43 42 40 38 38 38 38 39 37 32 30 29 27 26 26 25 23 21 19 17
30 31 33 33 30 28 28 32 34 33 33 37 40 43 45 46 44 42 42 43 41 41 42 41 41 41 41 42 43 44 44 45 46 46 45 44 43 44 44 44 44 45 46 46 43 41 41 40 40 41 40 39 35 32 31 29 28 27 26 24 22 20 18
28 28 30 30 31 31 31 32 34 32 31 36 40 44 45 45 44 43 42 43 42 41 43 43 42 43 43 43 44 45 46 46 46 46 46 45 45 44 44 45 45 46 48 48 45 44 45 43 42 42 42 40 37 34 33 31 30 29 27 26 24 21 20
25 27 28 28 31 32 32 33 34 32 32 36 40 44 45 43 44 43 42 44 43 41 42 44 44 44 45 45 45 45 46 45 45 46 46 46 46 46 46 46 48 48 50 49 46 46 47 46 44 44 43 41 39 36 35 34 32 31 29 27 25 22 20
18 22 22 22 25 28 29 30 31 30 33 37 40 44 45 44 45 45 43 44 45 43 42 44 46 46 47 48 46 45 45 45 46 46 46 47 47 47 48 47 48 49 50 50 47 47 48 47 45 44 42 41 40 38 38 37 34 31 29 26 26 24 21
17 19 19 20 23 26 27 26 26 28 32 37 41 45 47 46 47 46 44 42 44 44 42 43 47 48 49 49 47 45 45 45 47 47 47 47 47 46 47 47 48 49 49 49 47 48 48 45 44 43 40 41 42 39 40 41 36 31 29 26 26 24 22
19 19 17 21 22 24 27 26 26 27 30 35 39 43 46 47 47 46 44 42 43 44 43 43 47 49 50 50 47 46 47 47 47 47 47 47 47 46 46 46 47 48 48 48 47 48 47 44 44 43 41 43 46 43 42 43 38 33 31 28 25 23 22
25 26 21 23 24 25 25 26 27 28 30 34 37 41 45 47 47 47 46 45 43 43 43 42 46 50 51 50 49 48 48 48 47 47 46 46 45 45 46 47 48 48 47 47 46 46 45 45 45 43 40 43 46 43 42 43 39 35 33 28 23 21 21
27 30 27 25 27 29 29 27 27 29 30 32 34 38 41 44 46 47 46 44 42 43 44 42 44 49 51 50 51 51 50 49 48 47 45 44 44 46 48 49 48 47 45 45 45 44 44 43 42 40 38 40 41 39 39 39 37 34 31 26 20 18 19
26 29 27 22 23 28 30 28 27 28 29 29 30 32 34 38 42 44 44 43 42 44 46 44 43 46 50 50 51 52 52 50 49 46 45 45 46 47 47 46 45 44 43 42 43 44 43 41 40 38 36 36 36 35 34 33 32 30 27 22 17 15 17
34 32 28 24 19 23 28 28 27 28 28 28 27 28 31 35 39 40 41 42 42 44 47 46 43 44 48 51 52 52 51 49 47 46 47 47 46 45 45 44 44 43 41 40 40 41 42 41 39 38 36 35 35 34 31 28 27 26 24 20 17 16 16
37 35 30 29 28 25 27 27 25 25 27 27 26 26 29 34 37 39 40 41 41 43 46 46 43 43 47 51 52 51 49 47 47 47 46 45 43 43 43 43 42 40 38 37 36 35 35 34 34 34 35 36 35 34 32 29 27 25 23 20 18 17 16
35 35 30 28 31 30 30 28 24 24 27 28 27 27 29 34 37 39 41 42 42 43 44 45 44 45 46 49 50 48 47 47 47 45 43 41 40 40 41 40 39 38 37 36 36 34 30 28 27 29 31 31 32 32 31 29 26 24 21 19 17 16 15
34 33 32 32 31 28 27 27 26 27 29 30 29 29 31 35 37 39 42 43 43 43 44 45 46 46 45 46 46 45 45 46 44 41 39 38 37 35 31 28 28 30 32 33 33 33 31 26 22 21 21 21 22 23 22 21 19 17 15 15 16 15 15
27 27 33 35 35 30 24 23 25 27 29 30 31 31 33 36 38 39 41 42 43 44 43 44 47 46 43 42 41 40 41 41 39 38 37 36 32 27 22 21 22 23 24 24 22 22 24 23 19 18 18 15 14 14 13 14 15 15 14 15 16 16 16
12 12 19 25 28 29 23 22 25 27 28 30 33 33 34 38 39 38 39 40 40 42 40 38 41 43 42 40 37 35 35 36 36 36 34 31 27 24 23 24 23 21 20 19 16 16 19 22 22 21 19 15 14 14 12 13 15 15 15 17 16 15 15
4 4 7 11 17 23 22 23 25 28 28 30 33 33 35 38 38 36 38 38 37 37 36 35 36 37 36 35 35 33 34 36 35 31 29 28 27 27 27 26 25 24 23 21 19 20 23 26 25 22 17 16 16 15 11 9 10 11 13 14 14 13 13
8 7 9 8 9 13 18 24 26 28 28 27 30 32 34 36 36 35 36 36 35 35 36 36 36 34 31 31 32 33 34 35 33 31 30 30 31 31 29 27 25 25 24 22 21 22 24 24 22 18 16 16 15 12 9 8 8 9 9 10 11 12 13
3 5 10 12 11 13 18 22 24 26 26 26 28 30 32 35 36 36 36 35 35 38 39 38 36 33 32 32 32 32 32 32 33 34 33 33 33 32 29 26 24 24 22 21 21 22 21 19 18 16 16 15 12 9 9 9 10 10 9 9 10 11 13
3 5 10 13 15 17 19 19 22 25 24 26 30 31 33 36 37 37 36 35 37 39 38 37 37 35 35 33 32 32 32 32 33 33 31 32 33 31 29 26 24 23 23 22 22 22 20 19 19 18 16 14 11 10 9 10 10 10 9 10 12 14 14
2 5 6 9 14 21 21 19 23 25 24 27 32 33 33 35 37 38 37 36 36 36 34 37 38 37 35 34 34 33 32 32 32 30 28 31 33 32 30 28 24 23 23 22 21 20 18 17 17 18 16 13 12 12 12 12 12 11 11 13 16 17 16
5 7 6 5 10 18 21 21 22 21 21 25 30 32 34 35 37 38 38 37 36 35 35 38 39 37 35 36 35 33 31 31 31 28 27 30 32 31 30 27 22 21 23 22 19 18 17 15 15 15 15 15 14 14 16 17 15 12 14 17 18 17 17
12 14 12 8 8 14 21 25 24 23 22 23 25 29 31 32 34 36 36 36 35 35 35 36 35 35 35 35 34 32 30 29 28 28 29 30 29 27 26 23 19 19 23 22 19 16 16 16 15 14 15 15 15 15 18 19 18 14 14 16 16 15 15
16 17 18 16 16 19 23 25 25 25 23 22 24 27 29 31 32 33 34 35 35 34 33 33 33 33 31 29 28 28 29 29 28 29 29 28 26 25 25 23 21 21 23 22 19 17 16 15 15 15 15 15 16 17 18 18 17 14 11 11 12 11 12
16 17 19 20 20 23 25 24 23 22 21 19 21 25 28 29 29 29 31 33 33 32 31 32 30 27 23 20 21 25 29 30 28 27 27 26 25 25 27 28 25 23 21 20 19 17 17 16 17 17 16 16 17 19 18 16 16 15 11 9 9 9 9
17 17 20 21 22 24 25 24 21 20 19 17 17 21 23 24 23 23 25 29 30 29 29 29 26 22 19 17 19 25 29 26 24 25 25 25 26 27 29 30 27 22 19 19 19 19 19 18 19 18 17 17 17 16 17 17 16 14 10 9 9 9 9
19 19 20 21 23 24 24 23 21 20 19 17 17 19 20 20 19 18 17 20 24 25 26 25 24 23 22 20 20 24 25 23 23 25 25 24 26 28 28 29 27 24 21 20 20 21 20 19 20 19 18 19 17 15 16 18 16 12 10 10 11 11 11
Wind_Direction
201 198 198 198 200 200 201 204 206 208 208 208 209 208 206 206 206 204 203 204 204 205 206 206 206 206 207 207 206 209 211 210 209 206 203 198 191 199 207 201 196 198 201 203 202 205 202 195 208 221 227 236 237 224 212 201 203 212 217 206 205 210 191
197 192 191 193 200 204 205 207 209 211 210 209 210 208 206 206 207 205 203 204 205 205 205 205 205 206 206 205 204 205 209 210 210 208 203 195 192 198 205 203 200 197 200 206 206 210 210 205 212 219 226 237 239 228 219 217 216 217 220 209 199 206 198
192 185 187 191 198 205 207 206 209 211 209 208 208 207 207 207 206 205 204 204 204 204 205 205 204 204 204 204 204 205 208 208 207 206 203 198 196 197 200 205 203 197 202 209 210 213 217 217 220 222 226 231 230 227 228 225 216 209 212 204 189 199 202
185 183 186 192 199 205 206 205 205 206 205 206 208 207 207 207 206 206 205 204 204 203 204 204 203 202 203 204 204 206 208 207 204 203 203 203 203 201 202 204 202 201 207 214 216 218 222 225 225 224 224 223 220 224 229 225 217 203 195 195 199 206 200
177 182 186 190 198 201 202 204 205 206 206 208 209 207 206 206 205 205 205 205 204 203 203 203 202 201 202 203 205 206 207 205 201 202 204 206 208 207 207 206 204 207 213 217 220 223 226 228 228 225 220 217 218 224 224 217 214 206 194 192 199 206 200
168 177 182 187 197 201 201 202 202 204 208 207 207 206 204 203 202 202 203 203 203 202 202 202 201 201 202 202 204 204 204 202 200 202 205 207 209 210 211 211 210 214 217 218 221 226 228 228 229 227 222 219 220 221 218 212 208 207 206 203 201 200 198
170 175 181 186 191 193 195 199 201 205 209 207 206 205 202 200 200 200 200 200 199 198 199 198 199 202 202 201 201 201 201 200 199 202 205 206 209 213 215 215 216 218 219 219 222 227 229 228 228 229 228 226 224 220 217 215 210 206 208 212 210 203 199
181 173 177 180 180 184 188 192 197 203 206 205 206 206 202 199 199 199 199 198 196 196 195 194 197 201 201 199 198 199 200 201 201 203 205 205 209 215 217 217 220 221 220 222 226 228 229 229 229 231 232 230 228 224 219 216 215 212 211 213 214 211 209
190 174 177 179 178 183 186 188 192 196 201 204 206 207 204 200 199 198 198 196 195 194 194 193 195 198 200 199 198 199 201 202 203 204 206 206 209 215 218 221 223 225 224 225 228 228 229 231 231 232 233 232 231 229 222 217 217 218 217 217 217 217 218
194 176 179 178 178 180 181 185 187 190 199 206 208 208 205 201 199 197 196 196 195 195 194 194 193 194 198 198 197 199 201 202 204 206 206 208 211 215 219 223 225 227 227 228 230 230 229 231 234 234 234 233 233 233 228 222 221 223 222 219 220 222 223
179 172 173 172 174 175 177 182 185 189 197 204 207 208 206 202 200 198 196 195 195 194 194 194 193 192 195 195 195 199 203 204 206 208 209 209 211 215 220 224 226 227 228 230 231 232 231 233 236 236 235 234 237 240 235 230 229 229 227 226 225 226 228
159 162 165 170 172 172 177 184 189 194 200 203 206 207 205 202 200 198 197 195 193 194 194 194 193 192 192 192 195 200 203 205 207 209 211 210 210 214 219 223 226 229 230 231 232 232 233 234 236 238 238 237 240 245 241 236 236 236 235 234 231 230 229
156 160 163 171 175 177 183 189 192 198 204 206 207 208 206 202 199 198 198 196 193 193 195 195 194 193 193 194 197 201 202 205 208 209 211 212 212 214 218 221 225 228 232 233 232 233 234 235 237 240 241 239 242 247 244 239 239 240 240 239 237 235 232
156 161 164 174 181 184 190 195 198 201 205 207 207 207 206 202 200 200 200 196 194 194 195 195 194 195 197 198 199 202 204 206 209 209 210 213 214 215 219 221 222 225 231 234 233 234 237 238 238 240 242 241 243 246 244 241 242 242 241 241 240 239 236
163 168 166 170 179 188 195 200 205 206 206 207 206 203 203 202 201 201 201 198 196 195 196 196 196 197 200 201 201 203 207 208 209 210 211 213 215 217 220 222 221 223 229 233 234 236 238 240 240 240 241 242 243 245 244 243 244 245 245 246 244 242 240
193 196 185 168 167 181 192 196 202 207 207 206 204 201 201 202 202 201 201 199 197 197 197 197 197 199 201 203 203 205 209 210 210 211 212 214 216 218 220 222 224 226 229 232 234 235 238 239 238 238 242 246 246 246 245 245 246 248 251 252 249 246 243
221 225 207 180 173 183 190 190 194 200 202 201 203 204 203 203 204 202 200 199 198 198 198 198 199 201 204 206 207 208 210 211 211 211 212 214 216 218 219 222 226 229 231 232 233 234 235 236 234 234 241 247 247 249 249 246 246 250 252 251 250 248 245
241 251 217 190 200 203 193 190 193 198 203 203 204 206 205 204 204 202 200 200 200 199 198 199 201 202 204 207 206 207 209 210 211 211 211 213 215 217 219 221 224 228 230 233 234 233 232 234 235 237 241 242 244 250 250 245 246 250 250 249 249 248 245
233 248 226 199 213 220 203 196 196 198 204 208 207 208 209 206 204 203 202 201 200 199 198 201 203 203 203 205 205 207 210 210 210 211 211 213 214 216 218 220 222 227 231 235 236 235 234 235 237 239 240 239 241 246 246 243 245 249 250 248 248 247 247
222 236 229 205 205 213 210 202 198 200 205 207 207 210 210 208 207 206 204 202 201 200 199 200 204 204 204 206 207 208 210 210 211 212 213 214 215 217 220 222 226 231 234 236 237 236 235 235 237 238 237 236 240 242 242 243 246 250 251 251 247 245 249
226 229 229 215 196 195 201 199 195 198 202 202 203 205 206 206 207 206 204 203 203 203 201 201 203 204 205 206 207 209 211 211 213 215 216 217 218 221 224 227 230 232 233 234 236 237 236 236 238 239 237 235 237 239 240 243 247 251 252 250 249 252 254
236 233 233 235 217 191 190 196 197 198 201 202 201 201 202 203 204 203 202 202 204 205 203 202 202 203 203 205 205 208 210 213 215 218 219 220 222 224 227 229 231 231 232 234 236 237 238 238 239 240 240 238 239 239 239 241 245 249 249 251 257 262 259
239 239 237 241 242 220 199 199 205 206 207 207 205 204 204 203 202 202 200 199 202 205 203 202 204 203 202 204 206 208 210 213 216 217 219 221 224 226 228 229 230 231 233 235 233 233 236 239 240 243 245 245 245 243 240 240 242 248 253 258 263 263 258
242 240 241 247 247 229 209 207 215 216 211 210 210 211 208 204 201 202 201 198 200 202 200 200 204 205 203 204 207 208 209 212 213 213 216 220 223 225 227 227 228 231 234 236 234 232 234 238 244 248 251 251 248 245 243 243 245 251 256 258 258 256 257
240 235 240 251 252 233 212 211 219 219 214 211 212 211 207 204 202 202 201 198 197 199 198 199 204 205 202 202 204 204 206 210 212 213 215 218 219 221 223 223 224 228 232 234 236 236 234 237 244 246 243 242 242 242 243 243 244 248 251 250 251 251 252
245 236 232 241 250 245 226 211 211 213 212 211 211 210 205 202 200 200 200 196 195 195 194 196 203 203 197 196 199 202 205 208 211 212 212 213 214 212 210 208 209 215 218 219 224 227 226 226 230 229 226 226 230 233 229 224 228 236 239 241 245 248 247
274 254 227 225 241 249 233 208 206 210 211 212 211 206 202 199 197 197 196 194 193 191 187 189 198 198 193 195 200 202 204 205 207 207 206 206 202 197 196 198 199 202 203 198 198 205 211 215 216 220 226 228 221 215 213 216 223 227 229 235 239 240 238
252 286 262 238 253 257 230 204 204 207 207 209 206 200 197 194 192 191 192 190 187 183 179 181 188 190 189 192 197 199 200 202 203 199 194 193 191 192 196 195 189 191 193 189 189 200 210 216 216 216 222 222 217 216 220 225 228 225 223 226 226 222 221
213 255 271 259 274 262 216 196 198 200 200 201 198 193 190 188 185 185 186 183 179 177 175 173 175 177 180 183 188 191 193 195 194 189 186 187 191 195 198 194 189 190 190 185 188 199 209 215 215 211 210 211 213 217 214 214 229 237 226 216 212 210 210
208 258 258 245 245 238 213 198 193 191 192 192 189 185 183 182 182 181 179 176 174 175 173 169 170 174 176 175 173 173 176 180 181 183 184 186 188 191 192 190 190 189 184 181 187 195 200 203 202 200 202 203 202 204 208 217 231 236 226 214 209 203 200
198 244 253 244 233 226 220 206 190 183 184 186 185 183 182 180 176 171 169 168 170 171 170 169 171 173 171 166 161 161 167 172 176 180 183 182 181 182 182 184 188 187 183 185 190 191 193 196 195 194 196 198 203 212 222 228 228 227 225 214 200 195 197
181 218 229 226 224 225 220 202 184 175 170 172 175 173 172 170 165 159 158 159 163 166 166 165 165 162 160 159 160 163 169 172 174 177 179 178 178 179 179 183 188 185 182 185 190 192 194 195 194 193 191 194 206 213 215 222 227 228 223 210 200 200 208
110 126 137 172 201 203 190 171 162 156 144 147 154 154 152 152 153 153 152 153 159 165 166 164 162 159 159 161 164 167 171 172 175 177 177 178 179 180 181 184 187 185 182 182 185 191 194 191 190 190 188 191 199 202 206 218 230 226 212 207 207 210 218
104 116 120 127 140 147 144 140 139 135 126 129 138 141 141 143 147 150 152 156 163 167 166 165 164 163 164 166 168 171 170 170 172 175 177 179 179 179 181 183 186 188 185 181 183 192 194 190 188 189 189 190 195 199 207 219 230 227 212 209 214 218 223
96 106 116 123 120 115 115 118 119 119 120 126 132 135 138 141 145 149 154 160 165 167 165 166 165 163 163 164 167 169 169 169 171 173 177 182 182 180 181 183 188 194 190 183 185 193 194 190 188 188 193 197 199 202 205 211 224 232 225 213 215 221 225
79 81 91 104 109 105 103 105 107 110 116 122 127 132 137 139 141 148 156 163 167 169 168 165 159 154 154 155 158 163 166 170 173 174 179 185 185 181 182 183 187 194 195 189 191 195 195 194 193 192 197 203 204 204 205 208 222 236 238 222 218 227 230
74 74 77 86 96 98 99 104 109 111 116 119 121 124 129 130 132 141 156 166 169 169 169 164 156 151 152 153 159 166 167 168 171 174 178 186 187 186 187 187 186 191 197 196 196 197 198 199 201 202 206 212 212 209 206 210 221 232 234 227 228 238 241
72 73 70 73 82 87 90 96 100 102 104 110 114 118 120 123 127 137 154 167 170 171 173 171 164 159 159 162 169 173 171 170 172 174 177 185 189 191 192 191 187 188 193 196 198 202 204 207 210 213 217 220 221 217 212 214 221 225 222 221 228 237 242
Height
1436 1441 1445 1450 1452 1454 1455 1455 1458 1461 1465 1469 1471 1476 1481 1485 1486 1488 1489 1491 1493 1496 1499 1501 1504 1507 1510 1513 1516 1518 1520 1522 1525 1527 1529 1532 1534 1535 1536 1537 1538 1539 1540 1541 1541 1542 1543 1543 1543 1542 1542 1543 1545 1546 1548 1549 1551 1551 1552 1553 1554 1554 1555
1429 1435 1439 1444 1447 1450 1452 1452 1453 1455 1460 1465 1468 1472 1476 1480 1482 1484 1486 1488 1490 1493 1495 1498 1500 1503 1507 1510 1513 1515 1517 1519 1522 1524 1527 1529 1532 1533 1533 1534 1535 1536 1537 1537 1538 1538 1539 1540 1539 1539 1540 1541 1543 1545 1546 1547 1548 1549 1550 1551 1552 1552 1554
1423 1429 1433 1437 1441 1444 1447 1448 1449 1451 1455 1461 1464 1466 1470 1474 1478 1481 1483 1485 1487 1490 1493 1495 1497 1501 1504 1507 1510 1512 1514 1516 1519 1522 1524 1526 1528 1530 1530 1531 1532 1533 1533 1533 1534 1534 1535 1535 1536 1537 1539 1541 1542 1543 1544 1544 1545 1547 1548 1549 1550 1551 1553
1416 1421 1427 1432 1436 1438 1441 1444 1445 1447 1452 1457 1460 1462 1466 1471 1476 1479 1481 1483 1485 1487 1489 1492 1495 1498 1501 1503 1506 1509 1511 1514 1516 1519 1522 1523 1525 1526 1527 1527 1528 1529 1529 1530 1530 1530 1531 1532 1533 1536 1538 1539 1540 1541 1542 1543 1543 1545 1546 1547 1548 1549 1551
1408 1416 1422 1427 1431 1434 1436 1439 1442 1445 1449 1454 1457 1460 1463 1467 1472 1476 1479 1481 1482 1484 1486 1490 1492 1495 1498 1500 1503 1505 1508 1511 1514 1516 1518 1520 1521 1522 1523 1524 1524 1525 1525 1526 1527 1527 1528 1530 1532 1534 1536 1537 1538 1539 1540 1541 1542 1543 1545 1546 1546 1547 1548
1401 1410 1417 1421 1425 1428 1431 1434 1438 1442 1446 1451 1455 1458 1461 1465 1469 1473 1476 1478 1480 1483 1485 1487 1490 1492 1494 1497 1500 1503 1506 1509 1511 1513 1515 1516 1517 1518 1519 1520 1520 1521 1522 1523 1524 1524 1526 1528 1530 1531 1532 1534 1535 1537 1538 1539 1540 1541 1542 1543 1544 1544 1546
1398 1404 1410 1416 1420 1423 1426 1430 1435 1440 1446 1450 1454 1457 1459 1462 1466 1469 1473 1475 1477 1480 1482 1484 1487 1488 1491 1494 1497 1500 1503 1506 1508 1510 1512 1513 1514 1514 1515 1516 1516 1518 1519 1520 1521 1522 1524 1527 1528 1528 1530 1531 1533 1534 1535 1536 1537 1538 1539 1541 1542 1542 1543
1398 1402 1405 1409 1412 1417 1421 1425 1431 1437 1443 1448 1452 1454 1456 1459 1462 1465 1469 1471 1474 1476 1478 1480 1482 1484 1487 1490 1494 1497 1500 1502 1505 1506 1508 1510 1510 1511 1512 1512 1513 1515 1517 1518 1518 1520 1523 1524 1525 1526 1528 1529 1531 1532 1533 1534 1535 1536 1537 1539 1540 1541 1541
1394 1398 1400 1402 1406 1412 1416 1419 1425 1431 1437 1442 1446 1450 1453 1455 1457 1460 1464 1468 1470 1472 1474 1476 1479 1481 1484 1487 1491 1494 1496 1499 1501 1502 1504 1505 1506 1507 1508 1509 1511 1513 1514 1514 1516 1519 1521 1522 1523 1525 1526 1528 1529 1530 1531 1532 1533 1534 1535 1537 1538 1539 1540
1389 1393 1395 1398 1403 1407 1412 1416 1420 1425 1431 1436 1440 1444 1447 1450 1453 1456 1459 1463 1466 1468 1471 1472 1475 1478 1480 1483 1487 1490 1493 1494 1496 1498 1500 1501 1502 1503 1505 1506 1507 1509 1510 1512 1514 1517 1519 1520 1520 1522 1524 1525 1527 1528 1529 1530 1531 1532 1533 1534 1535 1537 1538
1387 1392 1394 1398 1402 1406 1411 1414 1417 1420 1424 1429 1434 1438 1442 1446 1450 1452 1455 1458 1461 1465 1467 1469 1472 1474 1476 1480 1483 1486 1487 1489 1492 1494 1495 1497 1498 1500 1501 1502 1504 1506 1508 1510 1512 1514 1516 1517 1518 1519 1520 1522 1524 1525 1527 1527 1528 1529 1530 1531 1533 1534 1535
1386 1390 1394 1399 1401 1405 1409 1412 1413 1415 1418 1423 1428 1434 1437 1441 1446 1449 1452 1454 1458 1461 1463 1465 1468 1470 1473 1476 1478 1480 1482 1484 1487 1488 1490 1493 1495 1496 1497 1499 1501 1503 1505 1507 1509 1511 1512 1514 1515 1516 1517 1519 1521 1523 1524 1525 1525 1526 1528 1529 1531 1532 1533
1387 1391 1394 1397 1399 1403 1407 1410 1411 1412 1415 1418 1424 1429 1433 1437 1442 1446 1448 1451 1454 1457 1459 1462 1464 1467 1469 1471 1473 1475 1477 1479 1481 1483 1486 1488 1490 1492 1494 1497 1498 1500 1501 1504 1506 1508 1509 1510 1512 1513 1514 1516 1518 1520 1521 1522 1523 1524 1525 1526 1528 1529 1530
1387 1391 1393 1395 1397 1401 1405 1409 1410 1410 1412 1415 1420 1426 1430 1433 1438 1442 1445 1447 1451 1453 1455 1457 1460 1462 1465 1466 1468 1470 1472 1475 1477 1480 1483 1485 1487 1489 1491 1493 1495 1496 1497 1500 1503 1504 1504 1506 1509 1510 1512 1513 1515 1517 1519 1519 1520 1521 1522 1523 1524 1526 1527
1384 1388 1390 1392 1395 1399 1402 1406 1407 1409 1411 1413 1418 1423 1427 1431 1436 1439 1442 1445 1447 1449 1451 1453 1456 1458 1460 1462 1464 1466 1468 1471 1474 1477 1479 1482 1484 1485 1486 1488 1490 1492 1494 1497 1500 1500 1501 1503 1506 1507 1510 1512 1513 1514 1516 1516 1517 1517 1518 1519 1520 1522 1523
1381 1384 1387 1389 1393 1397 1400 1402 1405 1408 1410 1413 1416 1420 1423 1427 1431 1434 1438 1440 1443 1446 1448 1449 1451 1453 1455 1457 1459 1462 1465 1467 1470 1473 1475 1477 1479 1480 1482 1484 1487 1489 1491 1493 1496 1498 1498 1500 1503 1506 1510 1511 1510 1511 1512 1512 1513 1513 1514 1516 1517 1518 1520
1378 1380 1383 1386 1390 1394 1396 1398 1401 1404 1407 1409 1412 1415 1418 1422 1425 1429 1434 1437 1440 1442 1444 1446 1447 1449 1451 1453 1455 1459 1461 1464 1466 1468 1470 1472 1475 1477 1479 1481 1483 1485 1488 1490 1494 1496 1496 1498 1500 1504 1509 1509 1507 1506 1507 1508 1509 1510 1511 1513 1515 1517 1518
1376 1378 1381 1384 1386 1389 1391 1393 1396 1400 1403 1406 1408 1411 1414 1417 1421 1425 1429 1433 1435 1438 1441 1442 1442 1444 1446 1449 1452 1455 1457 1459 1461 1464 1466 1469 1471 1474 1476 1479 1481 1483 1486 1487 1490 1493 1495 1496 1496 1499 1503 1504 1503 1502 1502 1503 1506 1507 1508 1510 1513 1515 1516
1375 1377 1379 1381 1384 1386 1388 1389 1391 1395 1398 1402 1405 1407 1410 1413 1416 1420 1423 1428 1431 1434 1437 1438 1438 1440 1442 1445 1449 1451 1452 1455 1458 1460 1463 1466 1469 1472 1474 1476 1478 1480 1483 1485 1488 1491 1493 1494 1494 1495 1498 1499 1499 1500 1500 1501 1504 1504 1505 1507 1511 1513 1515
1374 1375 1376 1378 1379 1382 1385 1386 1388 1391 1394 1398 1401 1404 1406 1410 1412 1416 1420 1425 1429 1431 1433 1434 1434 1436 1438 1441 1444 1445 1448 1451 1454 1457 1461 1464 1466 1468 1470 1473 1476 1479 1482 1484 1487 1489 1491 1492 1493 1494 1496 1497 1498 1499 1500 1501 1502 1503 1504 1505 1508 1512 1513
1371 1372 1373 1374 1375 1378 1382 1384 1386 1389 1392 1395 1398 1400 1404 1407 1409 1413 1417 1422 1425 1427 1429 1431 1431 1432 1434 1437 1439 1440 1443 1447 1451 1455 1458 1460 1462 1464 1467 1472 1475 1478 1481 1483 1485 1486 1488 1490 1491 1492 1494 1496 1497 1498 1499 1500 1500 1501 1502 1504 1507 1509 1510
1368 1369 1370 1372 1374 1375 1378 1381 1383 1386 1388 1391 1394 1396 1399 1402 1405 1408 1412 1416 1421 1423 1425 1428 1428 1428 1430 1432 1433 1435 1439 1443 1447 1451 1453 1456 1459 1463 1467 1470 1473 1476 1478 1480 1482 1484 1486 1487 1488 1490 1492 1494 1495 1496 1497 1499 1499 1499 1501 1503 1505 1507 1508
1362 1364 1367 1369 1372 1373 1375 1377 1379 1382 1385 1387 1390 1392 1393 1396 1400 1404 1407 1411 1415 1418 1422 1424 1424 1424 1426 1427 1429 1432 1436 1440 1444 1447 1450 1454 1459 1463 1466 1468 1471 1474 1476 1479 1481 1483 1484 1485 1487 1488 1490 1491 1492 1494 1495 1496 1498 1499 1500 1501 1503 1504 1505
1358 1360 1362 1365 1367 1368 1371 1373 1375 1378 1381 1383 1386 1387 1389 1392 1396 1400 1403 1406 1409 1413 1417 1419 1420 1420 1422 1424 1427 1431 1435 1438 1441 1445 1449 1453 1457 1461 1464 1467 1470 1473 1476 1479 1481 1483 1485 1485 1485 1486 1486 1487 1488 1489 1491 1493 1495 1497 1499 1499 1501 1501 1502
1354 1356 1358 1361 1364 1365 1366 1367 1370 1374 1377 1379 1381 1383 1385 1389 1393 1396 1399 1401 1404 1408 1411 1414 1415 1416 1420 1423 1426 1430 1432 1436 1440 1445 1449 1453 1456 1459 1462 1465 1468 1471 1474 1477 1480 1482 1484 1485 1485 1485 1484 1484 1485 1486 1488 1490 1492 1494 1495 1496 1498 1499 1500
1350 1351 1354 1358 1361 1363 1362 1362 1365 1370 1374 1376 1378 1379 1381 1385 1389 1392 1395 1398 1399 1402 1406 1409 1410 1413 1418 1421 1423 1428 1432 1436 1441 1445 1448 1451 1453 1457 1460 1462 1465 1467 1470 1473 1476 1479 1482 1484 1486 1486 1484 1483 1484 1484 1486 1487 1488 1491 1492 1494 1496 1497 1498
1347 1348 1351 1355 1358 1360 1359 1358 1361 1366 1370 1373 1375 1376 1378 1382 1385 1388 1393 1396 1397 1398 1402 1406 1408 1411 1414 1417 1421 1427 1431 1436 1439 1442 1445 1449 1452 1455 1458 1460 1462 1464 1466 1469 1472 1476 1479 1482 1484 1483 1482 1483 1484 1484 1484 1484 1486 1488 1490 1492 1493 1495 1496
1348 1350 1352 1354 1356 1357 1355 1355 1358 1363 1367 1369 1372 1374 1376 1378 1381 1386 1390 1393 1395 1398 1401 1403 1406 1410 1412 1415 1420 1426 1430 1434 1438 1441 1444 1448 1451 1454 1456 1459 1461 1462 1464 1466 1468 1471 1476 1479 1480 1480 1481 1482 1483 1482 1482 1483 1484 1486 1488 1489 1491 1493 1494
1348 1352 1353 1354 1356 1357 1356 1355 1357 1361 1364 1366 1369 1371 1373 1375 1379 1383 1387 1390 1394 1397 1399 1400 1404 1408 1412 1416 1420 1425 1429 1432 1436 1439 1443 1445 1448 1452 1455 1458 1460 1461 1463 1465 1466 1468 1472 1476 1478 1480 1481 1481 1481 1481 1481 1482 1483 1485 1486 1488 1489 1491 1492
1347 1351 1353 1354 1356 1358 1359 1357 1356 1358 1362 1365 1367 1370 1371 1373 1376 1380 1385 1389 1392 1394 1396 1398 1402 1407 1410 1414 1418 1422 1426 1430 1433 1436 1439 1441 1444 1448 1452 1457 1460 1462 1464 1465 1465 1467 1471 1475 1477 1479 1479 1479 1479 1480 1481 1481 1482 1484 1485 1487 1488 1489 1491
1348 1351 1352 1354 1356 1360 1362 1360 1356 1358 1361 1363 1365 1367 1368 1370 1373 1377 1382 1387 1390 1392 1395 1398 1402 1406 1409 1413 1417 1421 1425 1428 1432 1435 1437 1439 1442 1445 1449 1454 1457 1460 1462 1463 1464 1466 1470 1473 1475 1477 1477 1477 1478 1478 1479 1480 1481 1483 1484 1485 1486 1487 1489
1351 1353 1354 1357 1361 1364 1364 1360 1357 1357 1359 1360 1361 1363 1366 1369 1371 1375 1380 1385 1389 1393 1396 1399 1402 1407 1410 1414 1418 1422 1425 1429 1432 1435 1438 1440 1440 1442 1446 1451 1454 1457 1459 1460 1462 1465 1468 1471 1473 1474 1474 1475 1476 1477 1477 1478 1479 1481 1482 1483 1484 1485 1486
1353 1354 1358 1363 1366 1365 1361 1357 1355 1357 1358 1359 1359 1361 1364 1368 1370 1374 1379 1384 1389 1393 1397 1400 1403 1407 1410 1413 1417 1420 1424 1428 1432 1435 1439 1441 1441 1442 1445 1450 1453 1455 1457 1458 1460 1463 1466 1469 1470 1471 1472 1473 1474 1475 1475 1476 1477 1479 1480 1481 1482 1483 1485
1356 1356 1362 1369 1371 1367 1361 1358 1358 1360 1363 1364 1364 1365 1367 1370 1372 1375 1379 1384 1390 1395 1398 1401 1404 1407 1409 1412 1416 1419 1423 1427 1430 1434 1439 1442 1443 1444 1447 1451 1454 1456 1456 1457 1459 1461 1464 1467 1468 1469 1470 1471 1472 1474 1474 1474 1475 1477 1478 1480 1481 1482 1483
1363 1363 1366 1371 1373 1367 1362 1360 1361 1362 1366 1369 1369 1370 1371 1374 1376 1379 1382 1387 1392 1396 1399 1402 1405 1408 1411 1414 1417 1420 1424 1427 1429 1432 1437 1441 1442 1443 1446 1451 1454 1454 1454 1455 1458 1460 1463 1465 1467 1468 1469 1469 1471 1472 1472 1473 1473 1475 1477 1479 1480 1481 1482
1374 1373 1371 1371 1369 1365 1361 1363 1365 1367 1370 1373 1373 1372 1374 1377 1380 1383 1386 1390 1394 1397 1400 1403 1406 1409 1413 1416 1419 1422 1425 1428 1429 1430 1434 1438 1439 1441 1444 1448 1451 1452 1452 1454 1457 1460 1463 1464 1465 1466 1467 1468 1469 1470 1472 1472 1473 1474 1476 1477 1478 1480 1481
1381 1379 1375 1372 1369 1366 1365 1368 1372 1374 1376 1378 1378 1378 1379 1382 1385 1387 1390 1392 1395 1398 1401 1403 1406 1410 1414 1417 1420 1423 1426 1428 1430 1431 1433 1435 1438 1441 1444 1446 1448 1449 1451 1454 1457 1459 1461 1463 1463 1465 1465 1466 1468 1469 1471 1472 1472 1474 1475 1476 1477 1479 1480
1380 1377 1375 1372 1370 1369 1369 1370 1373 1376 1379 1381 1382 1383 1385 1387 1389 1391 1393 1395 1397 1400 1402 1404 1407 1410 1413 1416 1418 1421 1425 1429 1431 1432 1433 1435 1438 1441 1443 1445 1446 1448 1450 1453 1456 1458 1460 1461 1462 1463 1464 1465 1467 1468 1470 1471 1471 1473 1474 1475 1476 1478 1478